User: anonymous   Login
Location: Unspecified
(0.0000°N, 0.0000°E)
Time: 23:00:24
(UTC+00:00)
Language:

Envisat - Orbit

View from above orbital plane
View from above orbital plane
View from above satellite
View from above satellite

Ground track
Ground track

The orbit data is extracted from the following two-line orbital elements,

1 27386U 02009A   17267.54674093  .00000003  00000-0  14603-4 0  9999
2 27386  98.2218 308.6265 0001350  83.2259 276.9084 14.37903657815359
Epoch (UTC): 24 September 2017 13:07:18
Eccentricity: 0.0001350
inclination: 98.2218°
perigee height: 764 km
apogee height: 766 km
right ascension of ascending node: 308.6265°
argument of perigee: 83.2259°
revolutions per day: 14.37903657
mean anomaly at epoch: 276.9084°
orbit number at epoch: 81535

The dashed part of the orbit path shows where the satellite is in the earth's shadow,  

DLR